loading
|
Showing default

PORCUPINE 2, 1577

Orbit data source: Space-Track

PORCUPINE 2, 1577 is a payload satellite owned by NRL (US) in LEO that was launched on Fri, 13 Aug 1965 UTC via a THOR ABLESTAR launch vehicle from the Air Force Western Test Range (AFWTR). Payloads include a variety of satellites, spacecraft, and rockets equipped with specific instruments for various scientific and technological missions. These include communications satellites like Starlink; space stations such as the ISS; scientific satellites like the Hubble; Earth observation satellites from companies like Planet Labs, Umbra, and HawkEye 360; GPS; miniature CubeSats for education and research; and military/defense satellites.

Loading next visibility...
Loading greatness...
PORCUPINE 2 details
Identifier
1577, 1965-065J
Orbit
LEO
Last TLE update7 hours ago
Origin
Flag of USNRL (US)
ManufacturerNRL
Mission statusUnknown
MissionDefense Calibration
Bus & MotorSURCAL, Unknown motor
Mass5 kg wet, 5 kg dry
Launch date (UTC)
1965-08-13 (59 years ago)
Launch vehicle
THOR ABLESTAR
Launch site
Air Force Western Test Range (AFWTR)
Object type
Payload
Rocket body
Debris
Radar Cross SectionMedium (>0.1 m² and <1 m²)

Expand to show TLE details & history

TLE from 7 hours ago
0 PORCUPINE 2
1 01577U 65065J   24261.63731183  .00000360  00000-0  67452-3 0  9995
2 01577  89.9941 211.2297 0072237 102.0916  73.5636 13.36074204877514
Epoch: 2024-09-17T15:17Z
Definitive object data (Epoch: 2024-09-17T15:17:43.742Z)
Latitude3.45498°
Longitude164.74798°
Altitude1,111.515 km
Speed7.304 km/s
True Right ascension02h 04m 55s
True Declination3° 26' 07"
Sunlit
Object was in full shadow at TLE epoch
Predictive object data (real-time)
Latitude59.75161°
Longitude-15.24176°
Altitude1,093.494 km
Speed7.331 km/s
Apparent Right ascension04h 35m 31s
Apparent Declination60° 28' 49"
Sunlit
Object is in daylight
Predictive observer data (real-time)
Local Sidereal Time14:43:19
Azimuth346.244° N
Elevation12.994°
Doppler factor1
Orbital elements
Apogee1,175.18 km
Perigee1,066.837 km
Semi-major axis7,499.146 km
Eccentricity0.0072237
Inclination89.9941°
RAAN211.2297°
Arg. of periapsis102.0916°
True anomaly74.35956°
Mean anomaly73.5636°
Eccentric anomaly73.96138°
Mean motion3.34215 °/min
BSTAR0.00067452
Period107.72 mins
No data available

PORCUPINE 2 Visibility forecast

Observer location: 39.9160978°, -105.1181434

PORCUPINE 2 is not visible in the next 10 days
Span
Click to sort rows by Start time (UTC) header in descending order
Start Az.
Max El. time (UTC)
Max El. Az.
Max El.
End time (UTC)
End Az.